Home   Weather   Betul   Past weeks

Flag for India Past Weather in Betul, Madhya Pradesh, India — Yesterday and Last 2 Weeks

Now
54 °F

Haze.


Feels Like: 54 °F
Forecast: 50 / 86 °F
Wind: No wind

Location: Nagpur Sonegaon

Current Time: Dec 11, 2016 at 6:11:06 am

Latest Report: Dec 11, 2016 at 5:30 am


Visibility: 2 mi

Pressure: 29.89 "Hg (27.61 "Hg at 663m altitude)

Humidity: 88%

Dew Point: 50 °F

Location of BetulLocation

Past Weather in Betul — Graph

°F

Betul Temperature Yesterday

Maximum temperature yesterday: 82 °F (at 2:00 pm)
Minimum temperature yesterday: 48 °F (at 6:00 am)
Average temperature yesterday: 64 °F

High & Low Weather Summary for the Past Weeks

 TemperatureHumidityPressure
High90 °F (Nov 27, 1:30 pm)100% (Dec 9, 1:30 am)30.15 "Hg (Dec 9, 1:30 am)
Low48 °F (Dec 10, 6:00 am)17% (Dec 5, 12:30 pm)29.86 "Hg (Dec 9, 2:30 pm)
Average70 °F61%30.00 "Hg
* Reported Nov 26 4:30 am — Dec 11 4:30 am, Betul, Weather by CustomWeather, © 2016

Note: Actual official high and low records may vary slightly from our data, if they occured in-between our weather recording intervals... More about our weather records

Advertising

Betul Weather History for the Previous 24 Hours

Scroll right to see more
 ConditionsComfort  
Time TempWeatherWind HumidityBarometerVisibility
4:30 am
Sun, Dec 11
54 °FHaze.No wind88%29.89 "Hg1 mi
3:30 am59 °FHaze.3 mph72%29.89 "Hg1 mi
2:00 am66 °FHaze.3 mph52%29.92 "Hg1 mi
11:30 pm
Sat, Dec 10
68 °FHaze.2 mph53%29.95 "Hg1 mi
11:00 pm70 °FHaze.2 mph50%29.95 "Hg1 mi
10:30 pm63 °FHaze.2 mph73%29.95 "Hg1 mi
9:30 pm66 °FHaze.3 mph68%29.95 "Hg1 mi
9:00 pm68 °FHaze.2 mph64%29.95 "Hg1 mi
8:30 pm70 °FHaze.No wind40%29.95 "Hg2 mi
7:30 pm72 °FHaze.No wind38%29.92 "Hg2 mi
7:00 pm73 °FHaze.No wind36%29.92 "Hg2 mi
2:00 pm82 °FHaze.3 mph30%29.89 "Hg2 mi
1:00 pm81 °FHaze.3 mph37%29.92 "Hg2 mi
12:30 pm81 °FHaze.3 mph37%29.95 "Hg2 mi
12:00 pm79 °FHaze.2 mph39%29.95 "Hg2 mi
11:30 am79 °FHaze.3 mph39%29.98 "Hg2 mi
11:00 am81 °FHaze.3 mph39%29.98 "Hg2 mi
10:30 am73 °FHaze.5 mph50%29.98 "Hg2 mi
10:00 am70 °FHaze.5 mph57%30.01 "Hg2 mi
9:30 am64 °FHaze.3 mph60%30.01 "Hg2 mi
9:00 am61 °FHaze.3 mph63%30.01 "Hg2 mi
8:30 am59 °FHaze.2 mph68%29.98 "Hg2 mi
8:00 am54 °FHaze.No wind82%29.98 "Hg1 mi
7:30 am52 °FHaze.No wind82%29.98 "Hg1 mi
6:30 am48 °FHaze.2 mph87%29.95 "Hg1 mi
6:00 am48 °FHaze.5 mph87%29.95 "Hg1 mi
Weather by CustomWeather, © 2016

See weather overviewHow to use our weather pages